Location: Newark
(52.2090°N, 4.1550°W)
Time: 21:45:04
(UTC+00:00)

Explorer 7 - Pass Details

Date: 23 September 2019
Orbit: 485 x 680 km, 50.3° (Epoch: 14 October)

Event Time Altitude Azimuth Distance (km) Brightness Sun altitude
Rises 22:45:50 0° 238° (WSW) 2,806 - -35.2°
Reaches altitude 10° 22:48:05 10° 233° (SW) 1,940 - -35.3°
Maximum altitude 22:52:23 48° 159° (SSE) 817 - -35.6°
Drops below altitude 10° 22:56:57 10° 86° (E) 2,056 - -35.9°
Sets 22:59:24 0° 81° (E) 2,993 - -36.0°
